This demonstration page uses our WeatherBlox Daily Observations layout. Learn more.

Left ArrowRight Arrow

40.92945, -100.16068

Hourly Observations for November 22, 2019

Temp ( °F °C ) Dew Point ( °F °C ) Humidity (%) Winds ( mph kmh ) Pressure ( in mb ) Visibility ( mi km ) Precip ( " mm )
12:15 am 00:15 Cloudy 29 -1.8 22 -5.3 77 77 NNE 8 13 30.36 1028 10 16.0934 0 0
12:35 am 00:35 Mostly Cloudy 28 -2 22 -5.7 76 76 NNE 7 11 30.35 1028 10 16.0934 0 0
12:55 am 00:55 Mostly Cloudy 28 -2 22 -5.8 76 76 NNE 8 13 30.36 1028 10 16.0934 0 0
1:15 am 01:15 Mostly Cloudy 28 -2 22 -5.5 77 77 NNE 3 6 30.36 1028 10 16.0934 0 0
1:35 am 01:35 Cloudy 28 -2 22 -5.7 76 76 N 5 7 30.36 1028 10 16.0934 0 0
1:55 am 01:55 Partly Cloudy 28 -2.1 22 -5.5 78 78 NNE 8 13 30.35 1028 10 16.0934 0 0
2:15 am 02:15 Clear 28 -2.3 22 -5.5 79 79 NNE 5 7 30.36 1028 10 16.0934 0 0
2:35 am 02:35 Mostly Cloudy 28 -2.2 22 -5.6 78 78 Calm 30.37 1028 10 16.0934 0 0
2:55 am 02:55 Cloudy 28 -2.3 22 -5.3 80 80 NNE 5 7 30.36 1028 10 16.0934 0 0
3:15 am 03:15 Mostly Cloudy 28 -2.5 22 -5.5 80 80 NNE 3 6 30.36 1028 10 16.0934 0 0
3:35 am 03:35 Partly Cloudy 28 -2.5 22 -5.5 80 80 Calm 30.36 1028 10 16.0934 0 0
3:55 am 03:55 Clear 28 -2.5 22 -5.7 79 79 Calm 30.36 1028 10 16.0934 0 0
4:15 am 04:15 Partly Cloudy 28 -2.5 21 -5.9 78 78 Calm 30.36 1028 10 16.0934 0 0
4:35 am 04:35 Mostly Cloudy 27 -2.6 22 -5.7 80 80 N 3 6 30.35 1028 10 16.0934 0 0
4:55 am 04:55 Partly Cloudy 27 -2.6 22 -5.5 81 81 NNW 6 9 30.33 1027 10 16.0934 0 0
5:15 am 05:15 Clear 27 -3 22 -5.7 82 82 N 5 7 30.34 1027 10 16.0934 0 0
5:35 am 05:35 Mostly Cloudy 27 -3 22 -5.5 83 83 NW 3 6 30.33 1027 10 16.0934 0 0
5:55 am 05:55 Cloudy 26 -3.1 22 -5.5 84 84 N 5 7 30.33 1027 10 16.0934 0 0
6:15 am 06:15 Cloudy 27 -3 22 -5.5 83 83 NNW 5 7 30.33 1027 10 16.0934 0 0
6:35 am 06:35 Cloudy 27 -3 22 -5.6 82 82 N 5 7 30.33 1027 10 16.0934 0 0
6:55 am 06:55 Cloudy 26 -3.1 21 -6.1 80 80 N 5 7 30.34 1027 10 16.0934 0 0
7:15 am 07:15 Cloudy 26 -3.2 21 -6 81 81 Calm 30.34 1027 10 16.0934 0 0
7:35 am 07:35 Cloudy 26 -3.1 21 -6 81 81 NNE 3 6 30.35 1028 10 16.0934 0 0
7:55 am 07:55 Cloudy 26 -3.2 22 -5.8 82 82 NNE 3 6 30.35 1028 10 16.0934 0 0
8:15 am 08:15 Cloudy 26 -3.2 21 -6 81 81 Calm 30.35 1028 10 16.0934 0 0
8:35 am 08:35 Cloudy 26 -3.1 21 -6.3 79 79 Calm 30.35 1028 10 16.0934 0 0
8:55 am 08:55 Cloudy 27 -2.7 20 -6.4 76 76 SW 3 6 30.37 1028 10 16.0934 0 0
9:15 am 09:15 Cloudy 28 -2.3 21 -6 76 76 SSW 6 9 30.36 1028 10 16.0934 0 0
9:35 am 09:35 Cloudy 28 -2.1 22 -5.6 77 77 SSW 3 6 30.35 1028 10 16.0934 0 0
9:55 am 09:55 Cloudy 28 -2 21 -5.9 75 75 Calm 30.35 1028 10 16.0934 0 0
10:15 am 10:15 Cloudy 29 -1.7 22 -5.6 75 75 Calm 30.33 1027 10 16.0934 0 0
10:35 am 10:35 Cloudy 29 -1.5 22 -5.5 74 74 Calm 30.33 1027 10 16.0934 0 0
10:55 am 10:55 Cloudy 29 -1.5 22 -5.4 75 75 Calm 30.32 1027 10 16.0934 0 0
11:15 am 11:15 Cloudy 30 -1 22 -5.4 72 72 W 3 6 30.31 1026 10 16.0934 0 0
11:35 am 11:35 Cloudy 31 -0.8 22 -5.5 71 71 SW 5 7 30.31 1026 10 16.0934 0 0
11:55 am 11:55 Cloudy 31 -0.6 22 -5.6 69 69 SW 6 9 30.28 1026 10 16.0934 0 0
12:15 pm 12:15 Cloudy 31 -0.3 22 -5.5 68 68 SW 6 9 30.28 1025 10 16.0934 0 0
12:35 pm 12:35 Cloudy 32 -0.1 22 -5.7 66 66 WSW 6 9 30.26 1025 10 16.0934 0 0
12:55 pm 12:55 Cloudy 32 0 23 -5.2 68 68 SW 6 9 30.25 1024 10 16.0934 0 0
1:15 pm 13:15 Cloudy 33 0.4 23 -4.9 68 68 WSW 7 11 30.23 1024 10 16.0934 0 0
1:35 pm 13:35 Cloudy 33 0.4 24 -4.7 69 69 WSW 6 9 30.22 1023 10 16.0934 0 0
1:55 pm 13:55 Cloudy 33 0.6 26 -3.6 74 74 WSW 7 11 30.21 1023 10 16.0934 0 0
2:15 pm 14:15 Cloudy 33 0.5 25 -3.8 73 73 W 6 9 30.2 1023 10 16.0934 0 0
2:35 pm 14:35 Cloudy 34 0.9 27 -3 75 75 SW 8 13 30.19 1022 10 16.0934 0 0
2:55 pm 14:55 Cloudy 34 1 28 -2.5 78 78 SW 8 13 30.19 1022 10 16.0934 0 0
3:15 pm 15:15 Mostly Cloudy 34 1.2 28 -2 79 79 WSW 8 13 30.18 1022 10 16.0934 0 0
3:35 pm 15:35 Partly Cloudy 33 0.5 28 -2.2 82 82 SW 8 13 30.18 1022 10 16.0934 0 0
3:50 pm 15:50 Cloudy 33 0.5 28 -2.2 82 82 SW 7 11 30.18 1022 10 16.0934 0 0
4:15 pm 16:15 Cloudy 33 0.5 28 -2.3 82 82 SW 8 13 30.17 1022 10 16.0934 0 0
4:35 pm 16:35 Mostly Cloudy 33 0.3 28 -2.3 83 83 SW 8 13 30.17 1022 10 16.0934 0 0
4:55 pm 16:55 Mostly Cloudy 32 0 28 -2.2 85 85 SSW 7 11 30.18 1022 10 16.0934 0 0
5:15 pm 17:15 Mostly Cloudy 31 -0.5 27 -2.6 86 86 SSW 5 7 30.17 1022 10 16.0934 0 0
5:35 pm 17:35 Mostly Cloudy 30 -1.2 27 -2.8 89 89 S 3 6 30.18 1022 10 16.0934 0 0
5:55 pm 17:55 Mostly Cloudy 30 -1 27 -2.7 88 88 S 7 11 30.18 1022 10 16.0934 0 0
6:15 pm 18:15 Mostly Cloudy 31 -0.7 28 -2.2 90 90 S 5 7 30.17 1022 10 16.0934 0 0
6:35 pm 18:35 Cloudy 31 -0.7 28 -2 91 91 S 6 9 30.17 1022 10 16.0934 0 0
6:55 pm 18:55 Cloudy 31 -0.8 28 -2.3 90 90 S 9 15 30.17 1022 10 16.0934 0 0
7:15 pm 19:15 Cloudy 30 -1.2 28 -2.4 92 92 SSW 6 9 30.17 1022 10 16.0934 0 0
7:35 pm 19:35 Cloudy 29 -1.5 28 -2.5 93 93 SW 5 7 30.17 1022 10 16.0934 0 0
7:55 pm 19:55 Cloudy 29 -1.7 28 -2.5 94 94 SSW 6 9 30.17 1022 10 16.0934 0 0
8:15 pm 20:15 Cloudy 28 -2 28 -2.5 96 96 SSW 5 7 30.17 1022 10 16.0934 0 0
8:35 pm 20:35 Cloudy 28 -2 28 -2.5 96 96 SW 3 6 30.16 1021 10 16.0934 0 0
8:55 pm 20:55 Cloudy 29 -1.5 28 -2 96 96 Calm 30.15 1021 10 16.0934 0 0
9:15 pm 21:15 Cloudy 30 -1.3 28 -2.1 94 94 SW 5 7 30.15 1021 10 16.0934 0 0
9:35 pm 21:35 Partly Cloudy 28 -2 27 -2.6 96 96 SSW 7 11 30.15 1021 10 16.0934 0 0
9:55 pm 21:55 Partly Cloudy 28 -2.1 27 -2.8 95 95 Calm 30.15 1021 10 16.0934 0 0
10:15 pm 22:15 Mostly Cloudy 28 -2 27 -2.9 94 94 SW 6 9 30.14 1021 10 16.0934 0 0
10:35 pm 22:35 Clear 28 -2.5 26 -3.1 96 96 SW 7 11 30.13 1020 10 16.0934 0 0
10:55 pm 22:55 Clear 28 -2.5 26 -3.3 94 94 SW 8 13 30.12 1020 10 16.0934 0 0
11:15 pm 23:15 Clear 28 -2.5 26 -3.4 94 94 WSW 6 9 30.12 1020 10 16.0934 0 0
11:35 pm 23:35 Clear 27 -2.8 26 -3.6 94 94 SW 7 11 30.13 1020 10 16.0934 0 0
11:55 pm 23:55 Clear 26 -3.1 25 -3.9 94 94 WSW 6 9 30.12 1020 10 16.0934 0 0

Powered by AerisWeather